User: anonymous
Location: Hartman Creek State Park
(44.3257°N, 89.2134°W)
Time: 12:12:01
(UTC-05:00)
Language:

BREEZE-M DEB (TANK) - Orbit

View from above orbital plane
View from above orbital plane
View from above satellite
View from above satellite

Ground track
Ground track

The orbit data is extracted from the following two-line orbital elements,

1 29649U 06056B   14210.58065441  .00004090  00000-0  55745-3 0  9709
2 29649 049.5002 280.4766 5428242 226.9557 336.2194 04.94178894135346
Epoch (UTC): 29 July 2014 13:56:08
Eccentricity: 0.5428242
inclination: 49.5002°
perigee height: 278 km
apogee height: 16084 km
right ascension of ascending node: 280.4766°
argument of perigee: 226.9557°
revolutions per day: 4.94178894
mean anomaly at epoch: 336.2194°
orbit number at epoch: 13534

The dashed part of the orbit path shows where the satellite is in the earth's shadow,  

DLR